Weather History for Fort Bragg, NC

Change the Weather History Date:

Monday, June 24, 2013

  Actual Average Record
Temperature  
Mean Temperature 78 °F -  
Max Temperature 84 °F 86 °F 100 °F (2010)
Min Temperature 73 °F 69 °F 60 °F (1999)
Cooling Degree Days 14    
Growing Degree Days 28 (Base 50)    
Moisture  
Dew Point 74 °F    
Average Humidity 89    
Maximum Humidity 100    
Minimum Humidity 69    
Precipitation  
Precipitation 0.45 in - - ()
Sea Level Pressure  
Sea Level Pressure 30.19 in    
Wind  
Wind Speed 4 mph (SW)    
Max Wind Speed 15 mph    
Max Gust Speed 25 mph    
Visibility 9 miles    
Events Rain , Thunderstorm    
Averages and records for this station are not official NWS values.
T = Trace of Precipitation, MM = Missing Value Source: NWS Daily Summary

Daily Weather History Graph

Daily Weather History Graph

Search for Another Location

Airport:

Trip Planner

Search our weather history database for the weather conditions in past years. The results will help you decide how hot, cold, wet, or windy it might be!

Date:

Astronomy

Jun. 24, 2013 Rise Set
Actual Time 6:02 AM EDT 8:33 PM EDT
Civil Twilight 5:32 AM EDT 9:03 PM EDT
Nautical Twilight 4:55 AM EDT 9:40 PM EDT
Astronomical Twilight 4:15 AM EDT 10:21 PM EDT
Moon 9:39 PM EDT (6/24) 7:24 AM EDT (6/24)
Length of Visible Light 15h 30m
Length of Day
14h 31m
Full, 98% of the Moon is Illuminated
Jun 24
Full
Jun 30
Last Quarter
Jul 8
New
Jul 15
First Quarter
Jul 22
Full

Hourly Weather History & Observations

Time (EDT) Temp. Heat Index Dew Point Humidity Pressure Visibility Wind Dir Wind Speed Gust Speed Precip Events Conditions
12:58 AM 73.0 °F - 72.9 °F 99% 30.19 in 10.0 mi ESE 2.3 mph - N/A   Clear
1:14 AM 73.4 °F - 71.6 °F 94% 30.19 in 10.0 mi NNE 1.2 mph - N/A   Mostly Cloudy
1:58 AM 73.4 °F - 73.0 °F 99% 30.20 in 10.0 mi South 1.2 mph - N/A   Overcast
2:40 AM 73.4 °F - 73.4 °F 100% 30.20 in 10.0 mi Calm Calm - N/A   Scattered Clouds
2:58 AM 73.4 °F - 73.0 °F 99% 30.20 in 10.0 mi Calm Calm - N/A   Partly Cloudy
3:58 AM 73.4 °F - 73.0 °F 99% 30.20 in 10.0 mi SE 1.2 mph - N/A   Partly Cloudy
4:58 AM 73.0 °F - 72.7 °F 99% 30.20 in 10.0 mi Calm Calm - N/A   Clear
5:38 AM 73.4 °F - 73.4 °F 100% 30.19 in 10.0 mi SSE 2.3 mph - N/A Rain Light Rain
5:58 AM 73.4 °F - 73.0 °F 99% 30.19 in 3.0 mi SSE 2.3 mph - 0.03 in Rain Light Rain
6:00 AM 73.4 °F - 73.4 °F 100% 30.19 in 2.5 mi SSE 3.5 mph - N/A Rain Light Rain
6:06 AM 73.4 °F - 73.4 °F 100% 30.19 in 3.0 mi SSE 2.3 mph - N/A Rain Light Rain
6:11 AM 73.4 °F - 73.4 °F 100% 30.19 in 10.0 mi SSE 1.2 mph - N/A   Partly Cloudy
6:37 AM 73.4 °F - 73.4 °F 100% 30.20 in 10.0 mi Calm Calm - N/A   Mostly Cloudy
6:55 AM 73.4 °F - 73.4 °F 100% 30.20 in 10.0 mi Calm Calm - N/A   Overcast
6:57 AM 73.4 °F - 73.4 °F 100% 30.21 in 10.0 mi Calm Calm - N/A   Overcast
6:58 AM 74.1 °F - 74.1 °F 100% 30.22 in 10.0 mi Calm Calm - 0.04 in   Overcast
7:04 AM 73.4 °F - 73.4 °F 100% 30.21 in 10.0 mi North 1.2 mph - N/A   Overcast
7:58 AM 75.2 °F - 75.2 °F 100% 30.22 in 10.0 mi SSE 2.3 mph - N/A   Overcast
8:06 AM 75.2 °F - 75.2 °F 100% 30.21 in 10.0 mi SW 2.3 mph - N/A   Overcast
8:16 AM 75.2 °F - 75.2 °F 100% 30.21 in 10.0 mi South 3.5 mph - N/A   Overcast
8:17 AM 75.2 °F - 75.2 °F 100% 30.21 in 10.0 mi Variable 2.3 mph - N/A   Overcast
8:23 AM 75.2 °F - 75.2 °F 100% 30.21 in 10.0 mi SW 3.5 mph - N/A   Overcast
8:39 AM 77.0 °F - 75.2 °F 94% 30.21 in 10.0 mi SW 4.6 mph - N/A   Mostly Cloudy
8:41 AM 77.0 °F - 77.0 °F 100% 30.21 in 10.0 mi SW 4.6 mph - N/A   Mostly Cloudy
8:43 AM 77.0 °F - 77.0 °F 100% 30.21 in 10.0 mi SW 5.8 mph - N/A   Mostly Cloudy
8:51 AM 77.0 °F - 77.0 °F 100% 30.21 in 10.0 mi West 4.6 mph - N/A   Mostly Cloudy
8:58 AM 76.6 °F - 76.5 °F 99% 30.22 in 10.0 mi WSW 3.5 mph - N/A   Mostly Cloudy
9:18 AM 78.8 °F - 77.0 °F 94% 30.22 in 10.0 mi WSW 5.8 mph - N/A   Mostly Cloudy
9:40 AM 78.8 °F - 75.2 °F 89% 30.22 in 10.0 mi WSW 5.8 mph - N/A   Scattered Clouds
9:42 AM 78.8 °F - 75.2 °F 89% 30.22 in 10.0 mi WSW 4.6 mph - N/A   Mostly Cloudy
9:44 AM 78.8 °F - 75.2 °F 89% 30.22 in 10.0 mi West 5.8 mph - N/A   Scattered Clouds
9:50 AM 78.8 °F - 75.2 °F 89% 30.22 in 10.0 mi SW 5.8 mph - N/A   Mostly Cloudy
9:52 AM 80.6 °F 86.2 °F 75.2 °F 84% 30.22 in 10.0 mi Variable 5.8 mph - N/A   Scattered Clouds
9:54 AM 80.6 °F 86.2 °F 75.2 °F 84% 30.22 in 10.0 mi West 8.1 mph - N/A   Mostly Cloudy
9:58 AM 80.2 °F 85.5 °F 75.4 °F 85% 30.22 in 10.0 mi West 8.1 mph - N/A   Mostly Cloudy
10:02 AM 78.8 °F - 75.2 °F 89% 30.22 in 10.0 mi West 8.1 mph - N/A   Scattered Clouds
10:58 AM 82.0 °F 87.7 °F 73.6 °F 75% 30.22 in 10.0 mi WSW 5.8 mph - N/A   Scattered Clouds
11:58 AM 84.4 °F 91.3 °F 73.8 °F 70% 30.22 in 10.0 mi WSW 3.5 mph - N/A   Scattered Clouds
12:30 PM 84.2 °F 90.9 °F 73.4 °F 70% 30.21 in 10.0 mi SSW 6.9 mph - N/A Rain Light Rain
12:34 PM 84.2 °F 90.9 °F 73.4 °F 70% 30.21 in 10.0 mi SSW 6.9 mph - N/A Rain , Thunderstorm Light Thunderstorms and Rain
12:44 PM 78.8 °F - 73.4 °F 83% 30.21 in 5.0 mi Variable 5.8 mph - N/A Rain , Thunderstorm Light Thunderstorms and Rain
12:54 PM 78.8 °F - 73.4 °F 83% 30.21 in 10.0 mi South 3.5 mph - N/A Thunderstorm Partly Cloudy
12:58 PM 78.4 °F - 74.1 °F 87% 30.22 in 10.0 mi SW 3.5 mph - 0.04 in Thunderstorm Partly Cloudy
1:12 PM 82.4 °F 90.9 °F 77.0 °F 84% 30.20 in 10.0 mi WSW 6.9 mph - N/A Thunderstorm Thunderstorm
1:27 PM 84.2 °F 94.1 °F 77.0 °F 79% 30.19 in 10.0 mi Variable 5.8 mph - N/A   Partly Cloudy
1:29 PM 84.2 °F 94.1 °F 77.0 °F 79% 30.19 in 10.0 mi Variable 5.8 mph - N/A Thunderstorm Thunderstorm
1:56 PM 84.2 °F 90.9 °F 73.4 °F 70% 30.19 in 10.0 mi WNW 9.2 mph - N/A Rain , Thunderstorm Light Thunderstorms and Rain
1:58 PM 84.0 °F 90.2 °F 72.9 °F 69% 30.19 in 10.0 mi WNW 10.4 mph - N/A Rain , Thunderstorm Light Thunderstorms and Rain
2:01 PM 82.4 °F 88.2 °F 73.4 °F 74% 30.19 in 1.8 mi West 15.0 mph 25.3 mph N/A Rain , Thunderstorm Light Rain
2:02 PM 80.6 °F 85.4 °F 73.4 °F 79% 30.19 in 1.2 mi West 10.4 mph 25.3 mph N/A Rain , Thunderstorm Heavy Rain
2:04 PM 78.8 °F - 73.4 °F 83% 30.19 in 0.8 mi WSW 8.1 mph 25.3 mph N/A Rain , Thunderstorm Heavy Rain
2:06 PM 78.8 °F - 73.4 °F 83% 30.19 in 0.5 mi West 10.4 mph 25.3 mph N/A Rain , Thunderstorm Heavy Rain
2:08 PM 77.0 °F - 71.6 °F 83% 30.19 in 0.5 mi West 8.1 mph 25.3 mph N/A Rain , Thunderstorm Heavy Rain
2:10 PM 77.0 °F - 69.8 °F 78% 30.18 in 0.5 mi NNE 3.5 mph 25.3 mph N/A Rain , Thunderstorm Heavy Rain
2:12 PM 77.0 °F - 69.8 °F 78% 30.18 in 0.5 mi North 5.8 mph - N/A Rain , Thunderstorm Light Rain
2:16 PM 78.8 °F - 71.6 °F 78% 30.18 in 1.0 mi NE 4.6 mph - N/A Rain , Thunderstorm Light Rain
2:18 PM 77.0 °F - 73.4 °F 89% 30.18 in 2.0 mi NE 4.6 mph - N/A Rain , Thunderstorm Light Rain
2:20 PM 77.0 °F - 73.4 °F 89% 30.19 in 7.0 mi ENE 2.3 mph - N/A Thunderstorm Scattered Clouds
2:24 PM 77.0 °F - 73.4 °F 89% 30.19 in 10.0 mi Variable 1.2 mph - N/A Rain , Thunderstorm Light Rain
2:27 PM 77.0 °F - 75.2 °F 94% 30.18 in 10.0 mi NNW 2.3 mph - N/A Rain , Thunderstorm Light Thunderstorms and Rain
2:34 PM 77.0 °F - 75.2 °F 94% 30.18 in 10.0 mi ESE 2.3 mph - N/A Thunderstorm Thunderstorm
2:35 PM 77.0 °F - 75.2 °F 94% 30.18 in 10.0 mi ESE 2.3 mph - N/A Rain , Thunderstorm Light Thunderstorms and Rain
2:42 PM 77.0 °F - 75.2 °F 94% 30.18 in 10.0 mi SE 3.5 mph - N/A Thunderstorm Light Drizzle
2:45 PM 77.0 °F - 75.2 °F 94% 30.18 in 10.0 mi SE 4.6 mph - N/A Thunderstorm Scattered Clouds
2:58 PM 77.0 °F - 75.0 °F 94% 30.17 in 10.0 mi SSW 5.8 mph - 0.33 in Thunderstorm Partly Cloudy
3:01 PM 78.8 °F - 77.0 °F 94% 30.15 in 10.0 mi SW 6.9 mph - N/A Rain Light Rain
3:20 PM 78.8 °F - 73.4 °F 83% 30.15 in 10.0 mi SW 6.9 mph - N/A   Clear
3:58 PM 79.0 °F - 73.4 °F 83% 30.17 in 10.0 mi SSE 6.9 mph - 0.00 in   Clear
4:06 PM 78.8 °F - 73.4 °F 83% 30.17 in 10.0 mi SSE 5.8 mph - N/A Rain Light Rain
4:16 PM 78.8 °F - 73.4 °F 83% 30.17 in 10.0 mi South 6.9 mph - N/A   Clear
4:17 PM 78.8 °F - 73.4 °F 83% 30.17 in 10.0 mi South 6.9 mph - N/A Rain Light Rain
4:58 PM 77.4 °F - 74.5 °F 91% 30.17 in 10.0 mi South 3.5 mph - 0.01 in Rain Light Rain
5:08 PM 77.0 °F - 75.2 °F 94% 30.15 in 10.0 mi South 4.6 mph - N/A   Clear
5:58 PM 79.5 °F - 73.6 °F 82% 30.14 in 10.0 mi SW 5.8 mph - 0.00 in   Clear
6:58 PM 80.1 °F 84.8 °F 74.5 °F 83% 30.14 in 10.0 mi SW 5.8 mph - N/A   Clear
7:58 PM 79.5 °F - 73.8 °F 82% 30.14 in 10.0 mi SSW 8.1 mph - N/A   Partly Cloudy
8:58 PM 77.7 °F - 73.2 °F 86% 30.12 in 10.0 mi SW 5.8 mph - N/A   Clear
9:58 PM 76.3 °F - 70.5 °F 82% 30.14 in 10.0 mi SW 4.6 mph - N/A   Partly Cloudy
10:58 PM 74.5 °F - 69.4 °F 84% 30.17 in 10.0 mi SW 4.6 mph - N/A   Clear
11:58 PM 73.4 °F - 69.1 °F 86% 30.15 in 10.0 mi SW 3.5 mph - N/A   Clear